Location: Pagani
(40.7500°N, 14.6167°E)
Time: 21:59:40
(UTC+00:00)

Nadezhda 4 Rocket - Pass Details

Date: 15 May 2026
Orbit: 948 x 992 km, 82.9° (Epoch: 10 June)

Event Time Altitude Azimuth Distance (km) Brightness Sun altitude
Rises 20:25:01 0° 356° (N) 3,629 7.9 -20.5°
Reaches altitude 10° 20:27:34 10° 0° (N) 2,681 7.0 -20.8°
Maximum altitude 20:33:36 58° 80° (E) 1,100 4.1 -21.5°
Enters shadow 20:35:27 42° 135° (SE) 1,337 4.2 -21.7°
